Sand Point, AK

5:21 AM AKDT on September 28, 2016 (GMT -0800)
Sand Point

Weather History for PASD - December, 2013

Change the Weather History Date:

Sunday, December 1, 2013

  Actual Average Record
Temperature  
Mean Temperature 34 °F -  
Max Temperature 39 °F 35 °F 46 °F (1992)
Min Temperature 28 °F 29 °F 19 °F (1987)
Degree Days  
Heating Degree Days 32    
Moisture  
Dew Point 29 °F    
Average Humidity 78    
Maximum Humidity 87    
Minimum Humidity 65    
Precipitation  
Precipitation 0.00 in - - ()
Sea Level Pressure  
Sea Level Pressure 30.40 in    
Wind  
Wind Speed 3 mph (East)    
Max Wind Speed 8 mph    
Max Gust Speed -    
Visibility 10 miles    
Events      
Averages and records for this station are not official NWS values.
T = Trace of Precipitation, MM = Missing Value Source: NWS Daily Summary

Daily Weather History Graph

Daily Weather History Graph

Search for Another Location

Airport or City:

Trip Planner

Search our weather history database for the weather conditions in past years. The results will help you decide how hot, cold, wet, or windy it might be!

Date:

Astronomy

Dec. 01, 2013 Rise Set
Actual Time 9:45 AM AKST 5:16 PM AKST
Civil Twilight 9:01 AM AKST 6:00 PM AKST
Nautical Twilight 8:14 AM AKST 6:47 PM AKST
Astronomical Twilight 7:30 AM AKST 7:32 PM AKST
Moon 8:04 AM AKST (12/1) 4:46 PM AKST (12/1)
Length of Visible Light 8h 59m
Length of Day
7h 30m
Waning Crescent, 2% of the Moon is Illuminated
Dec 1
Waning Crescent
Dec 2
New
Dec 9
First Quarter
Dec 17
Full
Dec 25
Last Quarter

Hourly Weather History & Observations

Time (AKST) Temp. Windchill Dew Point Humidity Pressure Visibility Wind Dir Wind Speed Gust Speed Precip Events Conditions
12:16 AM 33.8 °F 28.6 °F 24.8 °F 70% 30.44 in 10.0 mi ENE 5.8 mph - N/A   Clear
12:36 AM 33.8 °F 28.6 °F 24.8 °F 70% 30.44 in 10.0 mi East 5.8 mph - N/A   Clear
12:56 AM 33.8 °F 28.6 °F 23.0 °F 65% 30.44 in 10.0 mi East 5.8 mph - N/A   Clear
1:16 AM 33.8 °F 29.6 °F 23.0 °F 65% 30.44 in 10.0 mi ENE 4.6 mph - N/A   Clear
1:36 AM 32.0 °F - 24.8 °F 75% 30.45 in 10.0 mi Calm Calm - N/A   Clear
1:56 AM 32.0 °F - 26.6 °F 80% 30.44 in 10.0 mi Calm Calm - N/A   Clear
2:16 AM 32.0 °F - 26.6 °F 80% 30.45 in 10.0 mi Calm Calm - N/A   Clear
2:36 AM 32.0 °F - 26.6 °F 80% 30.44 in 10.0 mi Calm Calm - N/A   Clear
2:56 AM 28.4 °F - 24.8 °F 86% 30.43 in 10.0 mi Calm Calm - N/A   Clear
3:16 AM 30.2 °F 24.3 °F 26.6 °F 86% 30.43 in 10.0 mi ENE 5.8 mph - N/A   Clear
3:36 AM 30.2 °F 23.4 °F 26.6 °F 86% 30.43 in 10.0 mi East 6.9 mph - N/A   Clear
3:56 AM 30.2 °F 24.3 °F 26.6 °F 86% 30.42 in 10.0 mi East 5.8 mph - N/A   Clear
4:16 AM 32.0 °F 27.5 °F 26.6 °F 80% 30.43 in 10.0 mi East 4.6 mph - N/A   Scattered Clouds
4:36 AM 32.0 °F 28.7 °F 26.6 °F 80% 30.42 in 10.0 mi East 3.5 mph - N/A   Mostly Cloudy
4:56 AM 32.0 °F 27.5 °F 26.6 °F 80% 30.42 in 10.0 mi East 4.6 mph - N/A   Overcast
5:16 AM 33.8 °F 30.8 °F 26.6 °F 75% 30.41 in 10.0 mi East 3.5 mph - N/A   Mostly Cloudy
5:36 AM 33.8 °F 29.6 °F 26.6 °F 75% 30.39 in 10.0 mi East 4.6 mph - N/A   Mostly Cloudy
5:56 AM 32.0 °F 28.7 °F 26.6 °F 80% 30.38 in 10.0 mi East 3.5 mph - N/A   Scattered Clouds
6:16 AM 32.0 °F - 26.6 °F 80% 30.39 in 10.0 mi Calm Calm - N/A   Scattered Clouds
6:36 AM 32.0 °F - 26.6 °F 80% 30.38 in 10.0 mi Calm Calm - N/A   Scattered Clouds
6:56 AM 32.0 °F 27.5 °F 28.4 °F 87% 30.38 in 10.0 mi ESE 4.6 mph - N/A   Clear
7:16 AM 32.0 °F 27.5 °F 26.6 °F 80% 30.38 in 10.0 mi ESE 4.6 mph - N/A   Clear
7:36 AM 32.0 °F 28.7 °F 26.6 °F 80% 30.38 in 10.0 mi East 3.5 mph - N/A   Clear
7:56 AM 32.0 °F 28.7 °F 28.4 °F 87% 30.38 in 10.0 mi ESE 3.5 mph - N/A   Clear
8:16 AM 32.0 °F - 26.6 °F 80% 30.38 in 10.0 mi Calm Calm - N/A   Clear
8:36 AM 33.8 °F 30.8 °F 26.6 °F 75% 30.38 in 10.0 mi ESE 3.5 mph - N/A   Clear
8:56 AM 33.8 °F 29.6 °F 26.6 °F 75% 30.38 in 10.0 mi East 4.6 mph - N/A   Clear
9:16 AM 33.8 °F 30.8 °F 26.6 °F 75% 30.39 in 10.0 mi East 3.5 mph - N/A   Clear
9:36 AM 33.8 °F 30.8 °F 28.4 °F 81% 30.39 in 10.0 mi East 3.5 mph - N/A   Clear
9:56 AM 33.8 °F - 26.6 °F 75% 30.39 in 10.0 mi Calm Calm - N/A   Scattered Clouds
10:16 AM 32.0 °F 28.7 °F 26.6 °F 80% 30.40 in 10.0 mi ENE 3.5 mph - N/A   Scattered Clouds
10:36 AM 33.8 °F 30.8 °F 26.6 °F 75% 30.40 in 10.0 mi East 3.5 mph - N/A   Scattered Clouds
10:56 AM 33.8 °F 29.6 °F 26.6 °F 75% 30.41 in 10.0 mi East 4.6 mph - N/A   Mostly Cloudy
11:16 AM 33.8 °F 29.6 °F 26.6 °F 75% 30.40 in 10.0 mi ENE 4.6 mph - N/A   Mostly Cloudy
11:36 AM 33.8 °F 30.8 °F 26.6 °F 75% 30.41 in 10.0 mi East 3.5 mph - N/A   Mostly Cloudy
11:56 AM 33.8 °F 30.8 °F 26.6 °F 75% 30.41 in 10.0 mi East 3.5 mph - N/A   Mostly Cloudy
12:16 PM 33.8 °F - 28.4 °F 81% 30.41 in 10.0 mi Calm Calm - N/A   Mostly Cloudy
12:36 PM 35.6 °F - 28.4 °F 75% 30.40 in 10.0 mi Calm Calm - N/A   Mostly Cloudy
12:56 PM 35.6 °F - 28.4 °F 75% 30.40 in 10.0 mi Calm Calm - N/A   Mostly Cloudy
1:16 PM 37.4 °F - 30.2 °F 75% 30.40 in 10.0 mi Calm Calm - N/A   Mostly Cloudy
1:36 PM 37.4 °F 34.9 °F 30.2 °F 75% 30.40 in 10.0 mi ESE 3.5 mph - N/A   Mostly Cloudy
1:56 PM 37.4 °F - 30.2 °F 75% 30.39 in 10.0 mi Calm Calm - N/A   Mostly Cloudy
2:16 PM 37.4 °F - 30.2 °F 75% 30.39 in 10.0 mi Calm Calm - N/A   Mostly Cloudy
2:36 PM 37.4 °F - 30.2 °F 75% 30.39 in 10.0 mi Calm Calm - N/A   Mostly Cloudy
2:56 PM 37.4 °F - 30.2 °F 75% 30.39 in 10.0 mi Calm Calm - N/A   Mostly Cloudy
3:16 PM 37.4 °F - 30.2 °F 75% 30.38 in 10.0 mi Calm Calm - N/A   Mostly Cloudy
3:36 PM 37.4 °F 34.9 °F 30.2 °F 75% 30.38 in 10.0 mi East 3.5 mph - N/A   Mostly Cloudy
3:56 PM 37.4 °F - 30.2 °F 75% 30.38 in 10.0 mi Calm Calm - N/A   Mostly Cloudy
4:16 PM 37.4 °F 34.9 °F 30.2 °F 75% 30.37 in 10.0 mi East 3.5 mph - N/A   Mostly Cloudy
4:36 PM 37.4 °F - 30.2 °F 75% 30.37 in 10.0 mi Calm Calm - N/A   Mostly Cloudy
4:56 PM 37.4 °F 34.9 °F 30.2 °F 75% 30.37 in 10.0 mi East 3.5 mph - N/A   Mostly Cloudy
5:16 PM 37.4 °F - 30.2 °F 75% 30.38 in 10.0 mi Calm Calm - N/A   Mostly Cloudy
5:36 PM 37.4 °F 33.8 °F 30.2 °F 75% 30.38 in 10.0 mi ENE 4.6 mph - N/A   Mostly Cloudy
5:56 PM 37.4 °F - 30.2 °F 75% 30.38 in 10.0 mi Calm Calm - N/A   Mostly Cloudy
6:16 PM 37.4 °F - 30.2 °F 75% 30.38 in 10.0 mi Calm Calm - N/A   Mostly Cloudy
6:36 PM 37.4 °F 32.8 °F 32.0 °F 81% 30.38 in 10.0 mi NE 5.8 mph - N/A   Mostly Cloudy
6:56 PM 37.4 °F - 32.0 °F 81% 30.38 in 10.0 mi Calm Calm - N/A   Mostly Cloudy
7:16 PM 37.4 °F 34.9 °F 32.0 °F 81% 30.39 in 10.0 mi ENE 3.5 mph - N/A   Mostly Cloudy
7:36 PM 37.4 °F 32.8 °F 32.0 °F 81% 30.40 in 10.0 mi East 5.8 mph - N/A   Mostly Cloudy
7:56 PM 37.4 °F - 32.0 °F 81% 30.40 in 10.0 mi Calm Calm - N/A   Mostly Cloudy
8:16 PM 37.4 °F 31.4 °F 32.0 °F 81% 30.40 in 10.0 mi East 8.1 mph - N/A   Overcast
8:36 PM 37.4 °F 34.9 °F 33.8 °F 87% 30.40 in 10.0 mi NE 3.5 mph - N/A   Mostly Cloudy
8:56 PM 37.4 °F 32.8 °F 33.8 °F 87% 30.40 in 10.0 mi East 5.8 mph - N/A   Scattered Clouds
9:16 PM 37.4 °F 32.1 °F 33.8 °F 87% 30.39 in 10.0 mi NE 6.9 mph - N/A   Mostly Cloudy
9:36 PM 39.2 °F 35.9 °F 33.8 °F 81% 30.39 in 10.0 mi ENE 4.6 mph - N/A   Mostly Cloudy
9:56 PM 37.4 °F 34.9 °F 33.8 °F 87% 30.39 in 10.0 mi East 3.5 mph - N/A   Mostly Cloudy
10:16 PM 39.2 °F 35.9 °F 33.8 °F 81% 30.39 in 10.0 mi East 4.6 mph - N/A   Scattered Clouds
10:36 PM 39.2 °F 35.0 °F 33.8 °F 81% 30.39 in 10.0 mi East 5.8 mph - N/A   Scattered Clouds
10:56 PM 39.2 °F 35.9 °F 33.8 °F 81% 30.40 in 10.0 mi ENE 4.6 mph - N/A   Mostly Cloudy
11:16 PM 39.2 °F 33.6 °F 33.8 °F 81% 30.39 in 10.0 mi ENE 8.1 mph - N/A   Overcast
11:36 PM 39.2 °F 35.0 °F 33.8 °F 81% 30.39 in 10.0 mi NE 5.8 mph - N/A   Overcast
11:56 PM 39.2 °F 35.9 °F 33.8 °F 81% 30.38 in 10.0 mi ENE 4.6 mph - N/A   Overcast